Stillwater, OK

6:29 PM CST on December 03, 2016 (GMT -0600)
Stillwater Municipal

Weather History for KSWO - April, 2014

Change the Weather History Date:

Tuesday, April 1, 2014

  Actual Average Record
Temperature  
Mean Temperature 52 °F -  
Max Temperature 60 °F 65 °F 93 °F (2012)
Min Temperature 44 °F 42 °F 35 °F (1998)
Degree Days  
Heating Degree Days 13    
Growing Degree Days 2 (Base 50)    
Moisture  
Dew Point 34 °F    
Average Humidity 48    
Maximum Humidity 66    
Minimum Humidity 35    
Precipitation  
Precipitation 0.00 in - - ()
Sea Level Pressure  
Sea Level Pressure 29.96 in    
Wind  
Wind Speed 11 mph (ENE)    
Max Wind Speed 16 mph    
Max Gust Speed 21 mph    
Visibility 10 miles    
Events      
Averages and records for this station are not official NWS values.
T = Trace of Precipitation, MM = Missing Value Source: NWS Daily Summary

Daily Weather History Graph

Daily Weather History Graph

Search for Another Location

Airport or City:

Trip Planner

Search our weather history database for the weather conditions in past years. The results will help you decide how hot, cold, wet, or windy it might be!

Date:

Astronomy

Apr. 01, 2014 Rise Set
Actual Time 7:14 AM CDT 7:50 PM CDT
Civil Twilight 6:48 AM CDT 8:16 PM CDT
Nautical Twilight 6:18 AM CDT 8:46 PM CDT
Astronomical Twilight 5:47 AM CDT 9:18 PM CDT
Moon 8:21 AM CDT (4/1) 10:09 PM CDT (4/1)
Length of Visible Light 13h 27m
Length of Day
12h 35m
Waxing Crescent, 5% of the Moon is Illuminated
Apr 1
Waxing Crescent
Apr 7
First Quarter
Apr 15
Full
Apr 22
Last Quarter
Apr 29
New

Hourly Weather History & Observations

Time (CDT) Temp. Windchill Dew Point Humidity Pressure Visibility Wind Dir Wind Speed Gust Speed Precip Events Conditions
12:53 AM 55.0 °F - - N/A% 30.01 in 10.0 mi NNE 12.7 mph - N/A   Partly Cloudy
1:53 AM 52.0 °F - - N/A% 30.00 in 10.0 mi NNE 13.8 mph - N/A   Clear
2:53 AM 48.9 °F - - N/A% 30.00 in 10.0 mi NNE 13.8 mph - N/A   Clear
3:53 AM 46.9 °F - - N/A% 30.01 in 10.0 mi NNE 12.7 mph - N/A   Mostly Cloudy
4:53 AM 46.0 °F 41.0 °F - N/A% 30.02 in 10.0 mi NNE 10.4 mph 20.7 mph N/A   Overcast
5:53 AM 45.0 °F 39.7 °F - N/A% 30.04 in 10.0 mi NE 10.4 mph - N/A   Overcast
6:53 AM 44.1 °F 38.1 °F - N/A% 30.04 in 10.0 mi NE 11.5 mph - N/A   Overcast
7:53 AM 44.1 °F 40.1 °F 25.0 °F 47% 30.07 in 10.0 mi NE 6.9 mph - N/A   Overcast
8:53 AM 45.0 °F 39.7 °F 25.0 °F 46% 30.05 in 10.0 mi NE 10.4 mph - N/A   Overcast
9:53 AM 48.9 °F - 26.1 °F 41% 30.04 in 10.0 mi ENE 16.1 mph 19.6 mph N/A   Overcast
10:53 AM 50.0 °F - 26.1 °F 39% 30.05 in 10.0 mi ENE 11.5 mph - N/A   Overcast
11:53 AM 52.0 °F - 26.1 °F 37% 30.03 in 10.0 mi NE 10.4 mph - N/A   Overcast
12:22 PM 53.6 °F - 26.6 °F 35% 30.03 in 10.0 mi NE 11.5 mph - N/A   Overcast
12:53 PM 53.1 °F - 27.0 °F 37% 30.01 in 10.0 mi NE 10.4 mph - N/A   Overcast
1:53 PM 55.0 °F - 30.9 °F 40% 29.98 in 10.0 mi East 15.0 mph 18.4 mph N/A   Overcast
2:53 PM 57.9 °F - 34.0 °F 41% 29.95 in 10.0 mi ESE 9.2 mph - N/A   Overcast
3:24 PM 55.4 °F - 35.6 °F 47% 29.94 in 10.0 mi SE 11.5 mph - N/A   Mostly Cloudy
3:53 PM 57.0 °F - 36.0 °F 45% 29.91 in 10.0 mi East 9.2 mph - N/A   Mostly Cloudy
4:12 PM 59.0 °F - 37.4 °F 45% 29.91 in 10.0 mi ESE 8.1 mph - N/A   Overcast
4:53 PM 59.0 °F - 37.9 °F 46% 29.88 in 10.0 mi SE 8.1 mph - N/A   Overcast
5:53 PM 60.1 °F - 39.9 °F 47% 29.86 in 10.0 mi SE 5.8 mph - N/A   Overcast
6:34 PM 60.8 °F - 41.0 °F 48% 29.86 in 10.0 mi SE 8.1 mph - N/A   Scattered Clouds
6:53 PM 59.0 °F - 41.0 °F 51% 29.85 in 10.0 mi ESE 6.9 mph - N/A   Clear
7:53 PM 55.9 °F - 39.9 °F 55% 29.85 in 10.0 mi NE 4.6 mph - N/A   Partly Cloudy
8:53 PM 53.1 °F - 41.0 °F 64% 29.85 in 10.0 mi NE 5.8 mph - N/A   Clear
9:53 PM 52.0 °F - 41.0 °F 66% 29.87 in 10.0 mi North 9.2 mph - N/A   Mostly Cloudy
10:53 PM 53.1 °F - 39.9 °F 61% 29.86 in 8.0 mi NE 12.7 mph - N/A   Overcast
11:53 PM 52.0 °F - 39.9 °F 63% 29.83 in 10.0 mi East 8.1 mph - N/A   Clear